Location: Milevsko
(49.4500°N, 14.3670°E)
Time: 00:37:43
(UTC+01:00)

ISS - Pass Details

Date: 13 July 2018
Orbit: 401 x 408 km, 51.6° (Epoch: 20 November)

Event Time Altitude Azimuth Distance (km) Brightness Sun altitude
Exits shadow 02:00:41 52° 152° (SSE) 525 -3.6 -17.7°
Drops below altitude 10° 02:03:57 10° 76° (ENE) 1,496 -0.6 -17.6°
Sets 02:06:05 0° 71° (ENE) 2,364 0.5 -17.5°
